Location: Unspecified
(45.3712°N, 0.6436°E)
Time: 15:12:39
(UTC+02:00)

ISS - Pass Details

Date: 13 July 2018
Orbit: 402 x 408 km, 51.6° (Epoch: 23 July)

Event Time Altitude Azimuth Distance (km) Brightness Sun altitude
Exits shadow 03:30:26 35° 294° (WNW) 685 -2.7 -19.9°
Maximum altitude 03:31:20 45° 339° (NNW) 565 -2.9 -19.8°
Drops below altitude 10° 03:34:32 10° 54° (NE) 1,474 -0.2 -19.6°
Sets 03:36:41 0° 61° (ENE) 2,338 0.9 -19.5°
